SWOT

Last updated on Fri Oct 04 2024 00:02:26 GMT+0000 (Coordinated Universal Time)

1 54754U 22173A 24277.55075986 .00000414 00000+0 28272-3 0 9999 2 54754 77.6105 154.4598 0000459 56.9086 303.2109 14.00171816 92155
UTC large
Height (km)
Speed (km/s)
/
Latitude / Longitude
Inclination (degrees)
Orbital Period (minutes)
Azimuth
Elevation
Range (km)
Doppler Factor

Next 0 passes for location: London (51.5072 / 0.1276)

Sorry there are no passes over London.